Roberto Rodrigues

Recruteur - Internacional
2 Sept 2027
Jeudi
Processus

Personnalité

Adaptabilité (12) Ambition (15) Controverse (2) Loyauté (4) Pression (12) Professionnalisme (17) Sportivité (2) Tempérament (17)

Profil

Style d'entraînement Démocratique
Diplôme Continental B
Détermination 14
Gestion des joueurs 14
Motivation 6
Discipline 11
Satisfaction professionnelle
100%
Fatigue
0%
Rôle Recruteur
Salaire 27.2K p/s
Contrat 14.03.2029

Performance

Comportement Bon
Efficacité de l'entraînement
43%
Développement des joueurs
65%
Prévention des blessures
65%
Mise en place tactique
45%

Événements récents

A participé à une réunion de recrutement maintenant
A participé à une réunion de recrutement 7j
A participé à une réunion de recrutement 7j
A participé à une réunion de recrutement 7j
A participé à une réunion de recrutement 14j
A participé à une réunion de recrutement 14j
A participé à une réunion de recrutement 14j
A voté contre une cible de transfert 21j

Suivi en cours

190
Joueur Club Statut Capacité Confiance Observé Dernière observation Dernier vote
Finn Azaz Southampton Actif 133 / 138 40% 2 31.05.2027 -
Kwadwo Baah Watford Actif 137 / 120 40% 1 31.05.2027 -
Mohamed-Ali Cho Hull City Actif 140 / 146 40% 1 28.05.2027 -
Amadou Onana Aston Villa Actif 157 / 157 40% 2 27.05.2027 -
Adam Wharton Crystal Palace Actif 156 / 153 40% 3 27.05.2027 -
Derry Murkin Derby County Actif 132 / 114 40% 2 26.05.2027 -
Curtis Jones Inter Actif 146 / 157 40% 2 24.05.2027 -
Gonzalo Fulham Actif 150 / 159 40% 2 24.05.2027 -
Max Bird Birmingham Actif 140 / 135 40% 3 22.05.2027 -
Nicolas Madsen Queens Park Rangers Actif 133 / 119 40% 1 22.05.2027 -
Che Adams Torino Actif 150 / 149 40% 1 17.05.2027 -
Giacomo Raspadori Atalanta Actif 143 / 145 40% 5 16.05.2027 -
Dango Ouattara Brentford Actif 149 / 137 40% 1 16.05.2027 -
Mateo Pellegrino Fiorentina Actif 137 / 128 40% 3 15.05.2027 -
Georginio Rutter Brighton Actif 147 / 160 40% 1 14.05.2027 -
Ryan Sessegnon Fulham Actif 157 / 150 40% 2 13.05.2027 -
Juanlu Bournemouth Actif 154 / 142 40% 1 13.05.2027 Plus d'infos
Hector Ramirez Newcastle United Actif 162 / 143 40% 3 12.05.2027 -
Jarrad Branthwaite Everton Actif 168 / 154 40% 1 12.05.2027 -
Nikola Vlašić Torino Actif 147 / 142 40% 4 10.05.2027 -
Mats Wieffer Brighton Actif 141 / 160 40% 2 09.05.2027 -
Ethan Galbraith Swansea City Actif 140 / 127 40% 4 07.05.2027 -
Nicolas Jackson Aston Villa Refusé 160 / 142 40% 3 05.05.2027 Refuser
Francisco Conceição Juventus Actif 156 / 167 40% 2 05.05.2027 -
James Garner Everton Actif 145 / 157 40% 2 05.05.2027 -
Óscar Mingueza Crystal Palace Actif 154 / 158 40% 1 05.05.2027 -
Barış Alper Yılmaz Galatasaray Actif 142 / 137 40% 5 03.05.2027 -
Ismaïla Sarr Crystal Palace Actif 140 / 144 40% 1 03.05.2027 -
Soungoutou Magassa West Ham United Actif 141 / 138 40% 1 27.04.2027 -
Ousmane Diomande Nottingham Forest Actif 165 / 153 40% 2 26.04.2027 -
Micky van de Ven Tottenham Actif 156 / 152 40% 1 26.04.2027 -
Gonçalo Inácio Sporting CP Actif 162 / 153 40% 3 23.04.2027 -
Mateo Retegui Tottenham Actif 163 / 162 40% 1 23.04.2027 -
Gianluca Prestianni Benfica Actif 151 / 136 40% 2 21.04.2027 -
Aaron Hickey Brentford Actif 141 / 135 40% 1 21.04.2027 -
Manu Koné AS Roma Actif 175 / 166 40% 1 21.04.2027 -
Dodi Lukébakio Benfica Actif 144 / 142 40% 2 15.04.2027 -
Zeno Debast Sporting CP Actif 133 / 147 40% 2 14.04.2027 -
Francisco Moura Lusitânia Lourosa Actif 129 / 126 40% 2 14.04.2027 -
Oli McBurnie Hull City Actif 123 / 146 40% 3 13.04.2027 -
Dominic Calvert-Lewin Leeds United Actif 150 / 147 40% 1 13.04.2027 -
Morgan Whittaker Middlesbrough Actif 129 / 130 40% 1 12.04.2027 -
Welington Southampton Actif 130 / 118 40% 4 11.04.2027 -
Nuno Tavares Lazio Actif 159 / 150 40% 2 11.04.2027 -
Noah Okafor Leeds United Actif 136 / 132 40% 1 10.04.2027 -
Alan Varela Porto Actif 147 / 144 40% 3 08.04.2027 -
Iván Fresneda Sporting CP Actif 134 / 133 40% 7 07.04.2027 -
João Simões Sporting CP Actif 124 / 141 40% 4 07.04.2027 -
Ozziel Herrera Tigres Actif 137 / 120 40% 1 03.04.2027 -
Yoane Wissa Newcastle United Actif 128 / 136 40% 4 02.04.2027 -
Ayase Ueda LOSC Lille Actif 155 / 129 40% 2 02.04.2027 -
Gustaf Lagerbielke Braga Actif 151 / 137 40% 11 01.04.2027 -
Kevin Vazquez Cruz Azul Actif 133 / 147 40% 1 01.04.2027 -
Tyrell Malacia Monaco Actif 138 / 140 40% 2 31.03.2027 -
Nicolás Fernández Mercau Shakhtar Actif 139 / 137 40% 2 31.03.2027 -
Tiago Santos LOSC Lille Actif 151 / 153 40% 1 27.03.2027 -
Folarin Balogun Monaco Actif 135 / 129 40% 4 26.03.2027 -
Dávid Strelec Middlesbrough Actif 146 / 130 40% 2 25.03.2027 -
Jens Odgaard Bologna Actif 148 / 129 40% 1 24.03.2027 -
Steven Bergwijn Al-Ittihad Actif 158 / 144 40% 2 23.03.2027 -
Julián Quiñones Lokomotiv Moscow Actif 153 / 133 40% 9 22.03.2027 -
Shea Charles Southampton Actif 137 / 133 40% 2 21.03.2027 -
Aidan Morris Middlesbrough Actif 145 / 122 40% 3 21.03.2027 -
Rashid Rashid Sparta Prague Actif 121 / 143 40% 1 18.03.2027 -
Toni Fruk KV Mechelen Actif 152 / 140 40% 1 18.03.2027 -
Paulinho Palmeiras Actif 140 / 133 40% 7 15.03.2027 -
Jørgen Strand Larsen Crystal Palace Actif 137 / 138 40% 2 15.03.2027 -
Félix Lemaréchal Club Brugge Actif 126 / 148 40% 2 13.03.2027 -
Milan van Ewijk Mansfield Town Actif 117 / 130 40% 1 11.03.2027 -
Amine Gouiri Olympique de Marseille Actif 139 / 151 40% 1 11.03.2027 -
Alberto Costa Porto Actif 131 / 145 40% 2 06.03.2027 -
Christian Krasnodar Actif 135 / 120 40% 3 03.03.2027 -
Razvan Balasa Crvena Zvezda Actif 140 / 136 40% 2 02.03.2027 -
Dwight McNeil Crystal Palace Actif 136 / 147 40% 1 01.03.2027 -
Eddie Nketiah Crystal Palace Actif 143 / 135 40% 1 01.03.2027 -
Ivan Toney Al-Ahli Actif 157 / 138 40% 1 27.02.2027 -
Giovanni Simeone Torino Actif 122 / 149 40% 2 25.02.2027 -
Callum Doyle Wrexham Actif 117 / 132 40% 4 24.02.2027 -
Imrân Louza Watford Actif 118 / 128 40% 2 24.02.2027 -
Luka Jović AEK Actif 145 / 138 40% 2 23.02.2027 -
Musa Barrow Al-Khaleej Actif 154 / 147 40% 2 23.02.2027 -
Florentino Luís Ipswich Town Actif 140 / 137 40% 2 21.02.2027 -
Roberto Fernández Braga Actif 146 / 138 40% 2 20.02.2027 -
Gabri Martínez Braga Actif 116 / 141 40% 4 19.02.2027 -
Matheus Bidu Corinthians Actif 141 / 123 40% 2 13.02.2027 -
Hany Mukhtar Spezia Actif 124 / 130 40% 3 12.02.2027 -
Nicolò Zaniolo Udinese Actif 158 / 142 40% 4 11.02.2027 -
Lukáš Červ Viktoria Plzen Actif 146 / 119 40% 1 11.02.2027 -
Fotis Ioannidis Rio Ave Actif 125 / 135 40% 2 08.02.2027 -
Kristoffer Lund Birmingham Actif 134 / 121 40% 3 08.02.2027 -
Luke McNally Bristol City Actif 125 / 121 40% 1 07.02.2027 -
Álex Centelles Levski Actif 141 / 130 40% 1 07.02.2027 -
Adnan Courtois KV Oostende Actif 128 / 122 40% 2 05.02.2027 -
Brian Rodríguez Club America Actif 141 / 136 40% 1 03.02.2027 -
William Gomes Porto Actif 135 / 146 40% 5 31.01.2027 -
Caio Alexandre Bahia Actif 127 / 140 40% 4 30.01.2027 -
Eric Ramires Bragantino Actif 125 / 125 40% 1 28.01.2027 -
Victor Froholdt Porto Actif 158 / 148 40% 7 23.01.2027 -
Ilay Camara Anderlecht Actif 131 / 122 40% 1 20.01.2027 -
Rodrigo Zalazar Sporting CP Actif 135 / 157 40% 4 18.01.2027 -
Henry Mosquera Bragantino Présélectionné 133 / 130 40% 3 18.01.2027 Observer
Rodrigo Pinheiro Famalicao Actif 115 / 133 40% 4 16.01.2027 -
Ansu Fati Monaco Actif 141 / 132 40% 1 16.01.2027 -
Cauan Barros Vasco da Gama Actif 123 / 130 40% 1 16.01.2027 -
Pau Víctor AVS Actif 155 / 149 40% 5 13.01.2027 Observer
Jack Rudoni Coventry City Actif 118 / 136 40% 1 11.01.2027 -
Diego Rossi Monterrey Actif 141 / 130 40% 1 11.01.2027 -
Jesús Orozco Chiquete Cruz Azul Actif 141 / 137 40% 1 06.01.2027 -
José Hurtado Bragantino Actif 117 / 118 40% 1 04.01.2027 -
Sikou Niakaté Braga Actif 121 / 134 40% 2 03.01.2027 -
Lucas Piton Vasco da Gama Actif 122 / 124 40% 1 03.01.2027 -
Vitinho Botafogo Actif 143 / 129 40% 1 01.01.2027 -
Matheuzinho Corinthians Actif 120 / 134 40% 1 01.01.2027 -
Bright Arrey-Mbi Braga Actif 114 / 140 40% 1 29.12.2026 -
Emerson Royal Flamengo Actif 126 / 124 40% 1 28.12.2026 -
Heorhii Sudakov Benfica Actif 162 / 136 40% 8 17.12.2026 -
Samuel Lino Flamengo Actif 155 / 133 40% 3 16.12.2026 -
Mario Dorgeles Braga Actif 124 / 126 40% 5 12.12.2026 -
Nuno Moreira Vasco da Gama Actif 141 / 132 40% 1 08.12.2026 -
Santi García Gil Vicente Actif 140 / 134 40% 1 02.12.2026 -
Orbelín Pineda Monterrey Actif 136 / 143 40% 3 27.11.2026 -
Igor Burnley Actif 134 / 141 40% 1 25.11.2026 -
Agustín Palavecino Cruz Azul Actif 132 / 139 40% 1 24.11.2026 -
Marcos Antonio Sport Recife Actif 134 / 135 40% 2 23.11.2026 -
Rémi Lemoine Chamois Niortais Actif 174 / 152 40% 3 23.11.2026 -
Matheus Pereira Cruzeiro Actif 135 / 150 40% 3 22.11.2026 -
Vinicinho Bragantino Actif 136 / 124 40% 1 20.11.2026 -
Lucas Paquetá Flamengo Actif 146 / 135 40% 1 19.11.2026 -
Lewis Cook Bournemouth Actif 162 / 137 40% 1 19.11.2026 -
João Palhinha Benfica Actif 160 / 138 40% 2 18.11.2026 -
Léo Ortiz Flamengo Actif 134 / 141 40% 2 18.11.2026 -
Zé Leite Leixões Actif 108 / 125 40% 1 18.11.2026 -
Andreas Pereira Palmeiras Actif 143 / 138 40% 2 15.11.2026 -
Leon Goretzka Aston Villa Actif 139 / 141 40% 3 13.11.2026 Observer
Othmane Maamma Watford Actif 138 / 125 40% 1 10.11.2026 -
Luís Guilherme Sporting CP Actif 128 / 119 40% 2 09.11.2026 -
Pedro Porro Tottenham Actif 130 / 133 40% 2 08.11.2026 -
Duvan Rangel La Equidad Actif 126 / 127 40% 1 07.11.2026 -
Henrique Araújo Casa Pia Actif 122 / 123 40% 1 06.11.2026 -
Marco Asensio Fenerbahce Actif 149 / 158 40% 2 04.11.2026 -
Joaquín Piquerez Palmeiras Actif 127 / 129 40% 2 03.11.2026 -
Gérson Cruzeiro Actif 153 / 145 40% 2 03.11.2026 -
Brais Méndez Columbus Crew Actif 149 / 148 40% 1 03.11.2026 -
Luis Quintero Torreense Actif 127 / 135 40% 1 01.11.2026 -
Guilherme Arana Fluminense Actif 128 / 140 40% 1 01.11.2026 -
Pablo Rosario Porto Actif 131 / 126 40% 3 27.10.2026 -
Jean Lucas Bahia Actif 131 / 130 40% 1 27.10.2026 -
Nicolás de la Cruz Flamengo Actif 135 / 133 40% 1 25.10.2026 -
Lee Hyun-Ju Arouca Actif 131 / 114 40% 1 23.10.2026 -
Manu Pozo Torreense Actif 104 / 129 40% 1 22.10.2026 -
Nathan Collins Brentford Actif 136 / 135 40% 1 19.10.2026 -
Leandro Barreiro Benfica Actif 132 / 146 40% 1 16.10.2026 -
Jan Bednarek Porto Actif 127 / 142 40% 1 15.10.2026 -
Dawda Camara Alverca Actif 131 / 110 40% 1 15.10.2026 -
Leroy Sané Galatasaray Actif 150 / 162 40% 1 13.10.2026 -
Mauro Arambarri River Plate Actif 142 / 156 40% 6 10.10.2026 -
Matty Cash Aston Villa Actif 148 / 158 40% 2 10.10.2026 -
Taichi Fukui Arouca Actif 142 / 131 40% 3 06.10.2026 -
Leonardo Borja La Equidad Actif 158 / 153 40% 1 30.09.2026 -
Renan Lodi Atlético Mineiro Actif 144 / 139 40% 2 26.09.2026 -
Danilo Botafogo Actif 124 / 135 40% 1 26.09.2026 -
Ianis Stoica Estrela da Amadora Actif 96 / 107 40% 1 26.09.2026 -
Adrien Truffert Bournemouth Actif 142 / 157 40% 1 21.09.2026 Plus d'infos
Geny Sporting CP Actif 125 / 140 40% 2 17.09.2026 -
Jalen Blesa Rio Ave Actif 133 / 108 40% 1 15.09.2026 -
Víctor Gómez Braga Actif 124 / 132 40% 1 13.09.2026 -
Luis Sinisterra Cruzeiro Actif 132 / 142 40% 1 11.09.2026 -
Marlon Freitas Palmeiras Actif 129 / 131 40% 1 09.09.2026 -
Arthur Santos Actif 150 / 144 40% 1 09.09.2026 -
Joachim Andersen Fulham Actif 127 / 134 40% 1 08.09.2026 -
Saša Lukić Ipswich Town Actif 143 / 149 40% 1 08.09.2026 -
Sergi Altimira Sporting CP Actif 136 / 132 40% 1 07.09.2026 -
Ángel Correa River Plate Actif 131 / 138 40% 1 04.09.2026 -
Pepê Porto Actif 159 / 145 40% 2 31.08.2026 -
Ricardo Horta Braga Actif 146 / 138 40% 2 31.08.2026 -
Eduardo Quaresma Sporting CP Actif 157 / 134 40% 2 28.08.2026 -
Dan Ndoye Nottingham Forest Actif 147 / 138 40% 1 28.08.2026 -
Demir Ege Tıknaz Braga Actif 104 / 130 40% 1 26.08.2026 -
Martín Tejón Maritimo Actif 103 / 111 40% 1 25.08.2026 -
Gabriel Veron Porto Actif 125 / 134 40% 1 24.08.2026 -
Lorougnon Gohi Académico de Viseu Actif 125 / 107 40% 1 23.08.2026 -
Mikel Merino Arsenal Actif 145 / 161 40% 1 16.08.2026 -
Diego Rodrigues Braga Actif 101 / 118 40% 1 15.08.2026 -
Álex Berenguer Athletic Bilbao Actif 152 / 153 40% 1 08.08.2026 -
Giovani Lo Celso Olympique de Marseille Actif 147 / 147 40% 1 08.08.2026 -
Pape Guèye Villarreal Actif 167 / 135 40% 1 07.08.2026 -
Robin Le Normand Atlético Madrid Actif 151 / 155 40% 1 07.08.2026 -
Mateja Stjepanović Moreirense Actif 100 / 128 40% 1 06.08.2026 -
Gonçalo Nogueira Vitoria Guimaraes Actif 111 / 124 40% 1 04.08.2026 -
Marcos Llorente Atlético Madrid Actif 159 / 157 40% 1 02.08.2026 -